Location: Kirkland Lake
(48.1510°N, 80.0330°W)
Time: 07:53:55
(UTC-04:00)

ISS - Pass Details

Date: 21 April 2026
Orbit: 414 x 424 km, 51.6° (Epoch: 18 May)

Event Time Altitude Azimuth Distance (km) Brightness Sun altitude
Exits shadow 04:53:20 17° 189° (S) 1,150 -2.0 -13.5°
Maximum altitude 04:55:10 27° 142° (SE) 846 -2.2 -13.3°
Drops below altitude 10° 04:58:04 10° 83° (E) 1,505 0.1 -12.9°
Sets 05:00:22 0° 71° (ENE) 2,376 1.7 -12.5°
